Home > Weather > Horgen > Past weeks

Flag for Switzerland Past Weather in Horgen, Zurich, Switzerland — Yesterday and Last 2 Weeks

Now
75 °F

Mild.


Feels Like: 78 °F
Forecast: 57 / 71 °F
Wind: 2 mph from Southwest

Location: Zuerich-Fluntern

Current Time: Jun 29, 2016 at 6:27:29 PM

Latest Report: Jun 29, 2016 at 5:00 PM


Visibility: N/A

Pressure: 29.88 "Hg

Humidity: 56%

Dew Point: 59 °F

Location of HorgenLocation

Past Weather in Horgen — Graph

°F

Horgen Temperature Yesterday

Maximum temperature yesterday: 77 °F (at 6:00 PM)
Minimum temperature yesterday: 57 °F (at 6:00 AM)
Average temperature yesterday: 67 °F

High & Low Weather Summary for the Past Weeks

 TemperatureHumidityPressure
High90 °F (Jun 23, 6:00 PM)97% (Jun 17, 12:00 AM)30.28 "Hg (Jun 17, 12:00 AM)
Low48 °F (Jun 17, 6:00 AM)38% (Jun 24, 3:00 PM)29.59 "Hg (Jun 16, 5:00 AM)
Average63 °F78%30.02 "Hg
* Reported Jun 14 4:00 PM — Jun 29 4:00 PM, Horgen, Weather by CustomWeather, © 2016

Note: Actual official high and low records may vary slightly from our data, if they occured in-between our weather recording intervals... More about our weather records

Advertising

Horgen Weather History for the Previous 24 Hours

Scroll right to see more
 ConditionsComfort  
Time TempWeatherWind HumidityBarometerVisibility
4:00 PM
Wed, Jun 29
74 °FMild.5 mph56%29.90 "HgN/A
3:00 PM75 °FMild.3 mph54%29.92 "HgN/A
2:00 PM76 °FPassing clouds.5 mph55%29.93 "HgN/A
1:00 PM74 °FMild.7 mph57%29.96 "HgN/A
12:00 PM72 °FMild.5 mph62%29.98 "HgN/A
10:00 AM65 °FMild.2 mph81%30.01 "HgN/A
9:00 AM63 °FMild.2 mph89%30.03 "HgN/A
8:00 AM63 °FOvercast.2 mph90%30.02 "HgN/A
7:00 AM62 °FCool.1 mph92%30.02 "HgN/A
5:00 AM64 °FMild.2 mph79%29.99 "HgN/A
4:00 AM63 °FMild.1 mph79%29.99 "HgN/A
3:00 AM62 °FCool.1 mph81%30.01 "HgN/A
2:00 AM62 °FCool.1 mph80%30.00 "HgN/A
1:00 AM63 °FMild.1 mph77%30.00 "HgN/A
12:00 AM64 °FMild.2 mph73%29.99 "HgN/A
11:00 PM
Tue, Jun 28
65 °FMild.2 mph67%29.98 "HgN/A
10:00 PM69 °FMild.3 mph60%29.97 "HgN/A
9:00 PM71 °FMild.7 mph56%29.96 "HgN/A
8:00 PM74 °FPassing clouds.2 mph47%29.94 "HgN/A
7:00 PM76 °FMild.5 mph41%29.93 "HgN/A
6:00 PM77 °FPleasantly warm.7 mph40%29.94 "HgN/A
Weather by CustomWeather, © 2016

See weather overviewHow to use our weather pages